Погода в Правобережном

Россия / Чеченская Республика     43°31′24″N   45°42′38″E
темп.,
°C
ветер,
м/с
пор.,
м/с
влажн.,
%
обл.,
%
осадки,
мм/ч
давл.,
гПа
погр.,
м
12 апреля, пн
пн1200:00+10зсз357511 0.0 101687
03:00+10з3673100 0.0 1016155
06:00+9з3776100 0.0 1017198
09:00+14зсз565999 0.0 1019800
12:00+17сз4451100 0.0 10191374
15:00+17сз3354100 0.1 10191244
18:00+15зсз3667100 0.0 1021250
21:00+13сз4674100 0.0 1021324
13 апреля, вт
вт1300:00+12зсз3576100 0.0 1022296
03:00+11зсз357791 0.0 1022248
06:00+11зсз3478100 0.0 1022246
09:00+11сз2276100 0.0 1022319
12:00+14сз1167100 0.0 1021690
15:00+16з326199 0.0 1019808
18:00+15сз3467100 0.0 1019166
21:00+10зсз488999 0.0 1019199
14 апреля, ср
ср1400:00+10з3588100 0.0 1018171
03:00+9зсз2392100 0.0 101663
06:00+9з3791100 0.0 1016226
09:00+13з4675100 0.0 1016568
12:00+13зсз4579100 0.9 1016496
15:00+14сз2366100 1.6 1015563
18:00+14зсз226323 0.0 101643
21:00+11з487639 0.0 1017155
15 апреля, чт
чт1500:00+10юз22845 0.0 101721
03:00+9юз228567 0.0 101713
06:00+9зюз22825 0.0 101723
09:00+16сз34555 0.0 1017713
12:00+19ссз33410 0.0 10151343
15:00+21ссз33350 0.0 10141617
18:00+18с11434 0.0 101474
21:00+15ссв014784 0.0 101411
16 апреля, пт
пт1600:00+14ююз1151100 0.0 101410
03:00+12юз115623 0.0 101310
06:00+12зюз115962 0.0 101411
09:00+18сз3350100 0.0 1015623
12:00+21сз434069 0.0 10141906
15:00+21сз4338100 0.0 10142378
18:00+15зсз71075100 0.1 1017610
21:00+13сз3791100 1.4 1018440